This is the latest recevied weather packets stored in our database for station/object F6DEV-13. If no packets are shown the sender has not sent any weather packets the latest 10 day(s).
| Time | Temp. | Humidity | Pressure | Rain* | Wind** | Luminosity | Snow |
|---|---|---|---|---|---|---|---|
| 1778150733 | 17.22° C | 50% | 1011 hPa | 0 mm | - | - | - |
| 1778150440 | 16.67° C | 52% | 1011.1 hPa | 0 mm | - | - | - |
| 1778150106 | 16.67° C | 51% | 1012 hPa | 0 mm | - | - | - |
| 1778149780 | 16.67° C | 51% | 1012 hPa | 0 mm | - | - | - |
| 1778149444 | 17.22° C | 52% | 1012 hPa | 0 mm | - | - | - |
| 1778149113 | 16.67° C | 51% | 1012 hPa | 0 mm | - | - | - |
| 1778148787 | 17.22° C | 53% | 1012 hPa | 0 mm | - | - | - |
| 1778148483 | 16.67° C | 53% | 1012 hPa | 0 mm | - | - | - |
| 1778148187 | 16.11° C | 56% | 1012 hPa | 0 mm | - | - | - |
| 1778147853 | 16.11° C | 55% | 1012 hPa | 0 mm | - | - | - |
| 1778147554 | 16.11° C | 55% | 1012 hPa | 0 mm | - | - | - |
| 1778147257 | 16.67° C | 52% | 1012 hPa | 0 mm | - | - | - |
| 1778147225 | 16.67° C | 52% | 1012 hPa | 0 mm | - | - | - |
| 1778146894 | 16.67° C | 55% | 1012 hPa | 0 mm | - | - | - |
| 1778146565 | 16.11° C | 54% | 1012 hPa | 0 mm | - | - | - |
| 1778146234 | 16.11° C | 55% | 1012 hPa | 0 mm | - | - | - |
| 1778145904 | 15.56° C | 56% | 1012 hPa | 0 mm | - | - | - |
| 1778145607 | 15.56° C | 56% | 1012 hPa | 0 mm | - | - | - |
| 1778145283 | 15.56° C | 58% | 1012 hPa | 0 mm | - | - | - |
| 1778144981 | 15° C | 54% | 1012 hPa | 0 mm | - | - | - |
| 1778144645 | 15.56° C | 59% | 1012 hPa | 0 mm | - | - | - |
| 1778144644 | 15.56° C | 59% | 1012 hPa | 0 mm | - | - | - |
| 1778144323 | 15.56° C | 61% | 1012 hPa | 0 mm | - | - | - |
| 1778143982 | 15.56° C | 62% | 1012 hPa | 0 mm | - | - | - |
| 1778143684 | 15° C | 62% | 1012 hPa | 0 mm | - | - | - |
* Rain latest hour (hover to see other rain measurements)
** Current wind speed in m/s (hover to see current wind gust speed)